User: anonymous   Login
Location: Unspecified
(0.0000°N, 0.0000°E)
Time: 02:58:13
(UTC+00:00)
Language:

ESSA 6 - Orbit

View from above orbital plane
View from above orbital plane
View from above satellite
View from above satellite

Ground track
Ground track

The orbit data is extracted from the following two-line orbital elements,

1  3035U 67114A   18171.49529288 -.00000055 +00000-0 -40847-4 0  9994
2  3035 102.2489 170.0389 0048350 267.1560 209.4143 12.54216372316695
Epoch (UTC): 20 June 2018 11:53:13
Eccentricity: 0.0048350
inclination: 102.2489°
perigee height: 1409 km
apogee height: 1485 km
right ascension of ascending node: 170.0389°
argument of perigee: 267.1560°
revolutions per day: 12.54216372
mean anomaly at epoch: 209.4143°
orbit number at epoch: 31669

The dashed part of the orbit path shows where the satellite is in the earth's shadow,  

DLR